When you browse on this site, cookies collect data to enhance your experience and personalize the content and advertising you see.
Visit our Privacy Policy to learn more. By continuing to use the site, you agree to this use of cookies and data.

Hourly Weather Brikama

Today, 20 September, Sunday

Time Temperature Precipitation Wind Pressure Humidity
00:00 +27°C° 0 mm 2 mps 758 mmHg 90%
01:00 +27°C° 0 mm 2 mps 757 mmHg 91%
02:00 +27°C° 0 mm 3 mps 757 mmHg 91%
03:00 +27°C° 0 mm 2 mps 757 mmHg 91%
04:00 +27°C° 0 mm 2 mps 757 mmHg 90%
05:00 +27°C° 0 mm 2 mps 757 mmHg 90%
06:00 +27°C° 0 mm 2 mps 757 mmHg 89%
07:00 +27°C° 0 mm 2 mps 758 mmHg 88%
08:00 +28°C° 0 mm 2 mps 758 mmHg 88%
09:00 +28°C° 0 mm 2 mps 758 mmHg 85%
10:00 +29°C° 0 mm 2 mps 758 mmHg 83%
11:00 +29°C° 0 mm 2 mps 758 mmHg 80%
12:00 +30°C° 0 mm 3 mps 757 mmHg 78%
13:00 +30°C° 0 mm 3 mps 757 mmHg 76%
14:00 +31°C° 0 mm 3 mps 756 mmHg 73%
15:00 +31°C° 0.1 mm 3 mps 756 mmHg 76%
16:00 +30°C° 0.1 mm 3 mps 756 mmHg 78%
17:00 +29°C° 0.1 mm 3 mps 756 mmHg 80%
18:00 +29°C° 0 mm 3 mps 756 mmHg 81%
19:00 +28°C° 0 mm 2 mps 757 mmHg 83%
20:00 +28°C° 0 mm 2 mps 758 mmHg 84%
21:00 +28°C° 0 mm 2 mps 758 mmHg 85%
22:00 +28°C° 0 mm 2 mps 758 mmHg 85%
23:00 +27°C° 0 mm 3 mps 758 mmHg 86%

Tomorrow, 21 September, Monday

Time Temperature Precipitation Wind Pressure Humidity
00:00 +27°C° 0 mm 2 mps 758 mmHg 86%
01:00 +27°C° 0 mm 2 mps 757 mmHg 86%
02:00 +27°C° 0 mm 2 mps 757 mmHg 87%
03:00 +27°C° 0 mm 2 mps 757 mmHg 87%
04:00 +27°C° 0 mm 2 mps 757 mmHg 87%
05:00 +27°C° 0 mm 2 mps 757 mmHg 87%
06:00 +28°C° 0 mm 2 mps 758 mmHg 85%
07:00 +28°C° 0 mm 2 mps 758 mmHg 83%
08:00 +29°C° 0 mm 2 mps 759 mmHg 81%
09:00 +29°C° 2.1 mm 2 mps 759 mmHg 82%
10:00 +29°C° 2.1 mm 2 mps 759 mmHg 82%
11:00 +28°C° 2.1 mm 1 mps 759 mmHg 83%
12:00 +29°C° 0 mm 2 mps 758 mmHg 80%
13:00 +29°C° 0 mm 2 mps 758 mmHg 76%
14:00 +30°C° 0 mm 3 mps 757 mmHg 72%
15:00 +30°C° 0 mm 3 mps 757 mmHg 74%
16:00 +29°C° 0 mm 2 mps 757 mmHg 75%
17:00 +29°C° 0 mm 2 mps 756 mmHg 77%
18:00 +28°C° 0 mm 2 mps 757 mmHg 79%
19:00 +28°C° 0 mm 3 mps 757 mmHg 80%
20:00 +27°C° 0 mm 3 mps 757 mmHg 82%
21:00 +27°C° 0 mm 3 mps 757 mmHg 83%
22:00 +27°C° 0 mm 3 mps 757 mmHg 84%
23:00 +27°C° 0 mm 4 mps 758 mmHg 85%

Day after tomorrow, 22 September, Tuesday

Time Temperature Precipitation Wind Pressure Humidity
00:00 +27°C° 0 mm 4 mps 757 mmHg 86%
01:00 +27°C° 0 mm 4 mps 757 mmHg 87%
02:00 +27°C° 0 mm 4 mps 757 mmHg 89%
03:00 +27°C° 0.1 mm 4 mps 757 mmHg 88%
04:00 +27°C° 0.1 mm 4 mps 757 mmHg 88%
05:00 +27°C° 0.1 mm 4 mps 757 mmHg 88%
06:00 +27°C° 1.9 mm 4 mps 757 mmHg 87%
07:00 +27°C° 1.9 mm 5 mps 758 mmHg 87%
08:00 +26°C° 1.9 mm 6 mps 758 mmHg 87%
09:00 +28°C° 0 mm 4 mps 758 mmHg 80%
10:00 +30°C° 0 mm 3 mps 758 mmHg 73%
11:00 +32°C° 0 mm 2 mps 758 mmHg 66%
12:00 +33°C° 0 mm 3 mps 757 mmHg 65%
13:00 +33°C° 0 mm 4 mps 757 mmHg 64%
14:00 +34°C° 0 mm 5 mps 756 mmHg 64%
15:00 +33°C° 0 mm 5 mps 756 mmHg 69%
16:00 +32°C° 0 mm 5 mps 756 mmHg 74%
17:00 +30°C° 0 mm 4 mps 756 mmHg 79%
18:00 +29°C° 0 mm 4 mps 756 mmHg 82%
19:00 +29°C° 0 mm 4 mps 757 mmHg 85%
20:00 +28°C° 0 mm 4 mps 758 mmHg 88%
21:00 +28°C° 0 mm 4 mps 758 mmHg 89%
22:00 +28°C° 0 mm 4 mps 758 mmHg 90%
23:00 +28°C° 0 mm 4 mps 758 mmHg 91%

23 September, Wednesday

Time Temperature Precipitation Wind Pressure Humidity
00:00 +28°C° 0 mm 4 mps 758 mmHg 91%
01:00 +28°C° 0 mm 4 mps 757 mmHg 91%
02:00 +28°C° 0 mm 5 mps 757 mmHg 91%
03:00 +28°C° 0 mm 4 mps 757 mmHg 91%
04:00 +27°C° 0 mm 4 mps 757 mmHg 91%
05:00 +27°C° 0 mm 4 mps 757 mmHg 91%
06:00 +28°C° 0 mm 4 mps 757 mmHg 88%
07:00 +28°C° 0 mm 4 mps 757 mmHg 86%
08:00 +29°C° 0 mm 4 mps 757 mmHg 84%
09:00 +30°C° 0 mm 4 mps 757 mmHg 80%
10:00 +32°C° 0 mm 4 mps 757 mmHg 76%
11:00 +33°C° 0 mm 5 mps 757 mmHg 73%
12:00 +33°C° 0 mm 5 mps 757 mmHg 73%
13:00 +33°C° 0 mm 5 mps 756 mmHg 73%
14:00 +33°C° 0 mm 5 mps 755 mmHg 73%
15:00 +32°C° 0 mm 5 mps 755 mmHg 76%
16:00 +30°C° 0 mm 5 mps 755 mmHg 79%
17:00 +29°C° 0 mm 5 mps 755 mmHg 82%
18:00 +29°C° 0 mm 5 mps 755 mmHg 84%
19:00 +28°C° 0 mm 4 mps 756 mmHg 86%
20:00 +28°C° 0 mm 4 mps 756 mmHg 88%
21:00 +28°C° 0 mm 4 mps 756 mmHg 89%
22:00 +28°C° 0 mm 4 mps 756 mmHg 90%
23:00 +27°C° 0 mm 4 mps 756 mmHg 91%

24 September, Thursday

Time Temperature Precipitation Wind Pressure Humidity
00:00 +27°C° 0 mm 3 mps 756 mmHg 90%
01:00 +27°C° 0 mm 3 mps 756 mmHg 89%
02:00 +27°C° 0 mm 3 mps 756 mmHg 88%
03:00 +27°C° 0 mm 3 mps 756 mmHg 87%
04:00 +27°C° 0 mm 3 mps 756 mmHg 85%
05:00 +28°C° 0 mm 2 mps 756 mmHg 84%
06:00 +28°C° 0 mm 3 mps 756 mmHg 81%
07:00 +29°C° 0 mm 3 mps 756 mmHg 79%
08:00 +29°C° 0 mm 4 mps 757 mmHg 77%
09:00 +30°C° 0 mm 4 mps 757 mmHg 74%
10:00 +30°C° 0 mm 4 mps 757 mmHg 72%
11:00 +32°C° 0 mm 4 mps 757 mmHg 70%
12:00 +32°C° 0 mm 4 mps 756 mmHg 71%
13:00 +30°C° 0 mm 4 mps 756 mmHg 73%
14:00 +30°C° 0 mm 4 mps 755 mmHg 74%
15:00 +30°C° 0 mm 4 mps 755 mmHg 75%
16:00 +29°C° 0 mm 4 mps 755 mmHg 77%
17:00 +29°C° 0 mm 4 mps 755 mmHg 78%
18:00 +29°C° 0 mm 3 mps 756 mmHg 79%
19:00 +28°C° 0 mm 3 mps 756 mmHg 81%
20:00 +28°C° 0 mm 2 mps 757 mmHg 82%
21:00 +28°C° 0.4 mm 2 mps 757 mmHg 83%
22:00 +27°C° 0.4 mm 2 mps 757 mmHg 84%
23:00 +27°C° 0.4 mm 2 mps 757 mmHg 84%

25 September, Friday

Time Temperature Precipitation Wind Pressure Humidity
00:00 +27°C° 0.6 mm 2 mps 757 mmHg 84%
01:00 +27°C° 0.6 mm 2 mps 756 mmHg 84%
02:00 +27°C° 0.6 mm 1 mps 756 mmHg 84%
03:00 +27°C° 0.1 mm 1 mps 756 mmHg 85%
04:00 +27°C° 0.1 mm 1 mps 756 mmHg 86%
05:00 +27°C° 0.1 mm 1 mps 756 mmHg 87%
06:00 +27°C° 0 mm 1 mps 756 mmHg 87%
07:00 +27°C° 0 mm 2 mps 757 mmHg 87%
08:00 +27°C° 0 mm 2 mps 757 mmHg 87%
09:00 +28°C° 0 mm 2 mps 757 mmHg 84%
10:00 +29°C° 0 mm 2 mps 758 mmHg 80%
11:00 +29°C° 0 mm 2 mps 758 mmHg 76%
12:00 +31°C° 0 mm 2 mps 757 mmHg 71%
13:00 +32°C° 0 mm 2 mps 757 mmHg 67%
14:00 +34°C° 0 mm 2 mps 756 mmHg 62%
15:00 +32°C° 0 mm 2 mps 756 mmHg 66%
16:00 +33°C° 0 mm 3 mps 756 mmHg 69%
17:00 +31°C° 0 mm 3 mps 756 mmHg 73%
18:00 +30°C° 0 mm 3 mps 756 mmHg 77%
19:00 +29°C° 0 mm 2 mps 756 mmHg 80%
20:00 +28°C° 0 mm 2 mps 757 mmHg 84%
21:00 +28°C° 0 mm 2 mps 757 mmHg 84%
22:00 +28°C° 0 mm 2 mps 757 mmHg 85%
23:00 +28°C° 0 mm 2 mps 758 mmHg 85%
Show more